This demonstration page uses our WeatherBlox Daily Observations layout. Learn more.

Left ArrowRight Arrow

39.51506, -84.39828

Hourly Observations for January 26, 2015

Temp ( °F °C ) Dew Point ( °F °C ) Humidity (%) Winds ( mph kmh ) Pressure ( in mb ) Visibility ( mi km ) Precip ( " mm )
12:15 am 00:15 Cloudy with Light Snow 29 -1.5 25 -3.7 85 85 NNE 13 20 29.83 1010 1 2 0.00 0.00
12:35 am 00:35 Cloudy with Light Snow 29 -1.5 25 -3.7 85 85 NNE 13 20 29.83 1010 1 2 0.00 0.00
12:55 am 00:55 Cloudy with Light Snow 29 -1.5 25 -3.9 84 84 NNE 10 17 29.83 1010 3 4 0.00 0.00
1:15 am 01:15 Cloudy with Light Snow 29 -1.5 25 -4 83 83 NNE 17 28 29.83 1010 5 8 0.00 0.00
1:35 am 01:35 Cloudy with Light Snow 27 -2.8 22 -5.5 82 82 NNE 13 20 29.83 1010 4 6 0.00 0.00
1:55 am 01:55 Cloudy with Light Snow 27 -2.8 22 -5.3 83 83 N 13 20 29.85 1011 3 4 0.00 0.00
2:15 am 02:15 Cloudy with Light Snow 25 -4.1 20 -6.8 82 82 NNE 14 22 29.85 1011 2 3 0.00 0.00
2:35 am 02:35 Cloudy with Light Snow 24 -4.2 19 -7 81 81 NNE 14 22 29.85 1011 3 5 0.00 0.00
2:55 am 02:55 Cloudy with Light Snow 24 -4.2 19 -7 81 81 NNE 15 24 29.85 1011 3 5 0.00 0.00
3:15 am 03:15 Cloudy with Light Snow 24 -4.2 19 -7 81 81 NNE 14 22 29.85 1011 3 5 0.00 0.00
3:35 am 03:35 Cloudy with Light Snow 23 -4.9 18 -7.8 80 80 NNE 13 20 29.85 1011 3 4 0.00 0.00
3:55 am 03:55 Cloudy with Light Snow 23 -5.2 17 -8.2 80 80 N 13 20 29.88 1012 5 8 0.00 0.00
4:15 am 04:15 Cloudy 23 -5.2 17 -8.5 78 78 NNE 10 17 29.88 1012 10 16 0.00 0.00
4:35 am 04:35 Cloudy 22 -5.6 16 -8.9 78 78 N 12 19 29.88 1012 10 16 0.00 0.00
4:55 am 04:55 Cloudy 22 -5.6 16 -9 77 77 N 15 24 29.88 1012 10 16 0.00 0.00
5:15 am 05:15 Cloudy 22 -5.7 16 -9.1 77 77 N 15 24 29.88 1012 10 16 0.00 0.00
5:35 am 05:35 Cloudy 21 -6.1 15 -9.5 77 77 N 12 19 29.88 1012 10 16 0.00 0.00
5:55 am 05:55 Cloudy 21 -6.3 14 -9.8 77 77 N 9 15 29.88 1012 10 16 0.00 0.00
6:15 am 06:15 Partly Cloudy 20 -6.7 14 -10.1 77 77 N 9 15 29.88 1012 10 16 0.00 0.00
6:35 am 06:35 Clear 19 -7 13 -10.3 78 78 N 7 11 29.88 1012 10 16 0.00 0.00
6:55 am 06:55 Clear 19 -7 14 -10.2 78 78 N 6 9 29.91 1013 10 16 0.00 0.00
7:15 am 07:15 Mostly Cloudy 19 -7 14 -10.1 79 79 N 8 13 29.91 1013 10 16 0.00 0.00
7:35 am 07:35 Cloudy 20 -6.6 14 -10 77 77 N 10 17 29.91 1013 10 16 0.00 0.00
7:55 am 07:55 Cloudy 21 -6.3 14 -9.8 77 77 N 9 15 29.91 1013 10 16 0.00 0.00
8:15 am 08:15 Cloudy 21 -6.3 14 -10 75 75 N 10 17 29.94 1014 10 16 0.00 0.00
8:35 am 08:35 Cloudy 21 -6.3 14 -10.1 75 75 N 9 15 29.94 1014 10 16 0.00 0.00
8:55 am 08:55 Cloudy 21 -6.3 14 -10.2 74 74 N 8 13 29.94 1014 10 16 0.00 0.00
9:15 am 09:15 Cloudy 21 -6.3 14 -10.2 74 74 N 9 15 29.94 1014 10 16 0.00 0.00
9:35 am 09:35 Cloudy 21 -6.1 14 -10 74 74 N 8 13 29.94 1014 10 16 0.00 0.00
9:55 am 09:55 Cloudy 22 -5.6 15 -9.6 74 74 NNW 7 11 29.97 1015 10 16 0.00 0.00
10:15 am 10:15 Cloudy 22 -5.6 14 -10.1 71 71 N 13 20 29.97 1015 10 16 0.00 0.00
10:35 am 10:35 Cloudy 21 -5.9 13 -10.7 69 69 N 8 13 29.97 1015 10 16 0.00 0.00
10:55 am 10:55 Cloudy 22 -5.7 14 -10.2 71 71 NNW 10 17 29.97 1015 10 16 0.00 0.00
11:15 am 11:15 Mostly Cloudy 22 -5.6 13 -10.5 69 69 N 12 19 30.00 1016 10 16 0.00 0.00
11:35 am 11:35 Sunny 23 -5.2 12 -10.9 65 65 N 12 19 29.97 1015 10 16 0.00 0.00
11:55 am 11:55 Sunny 23 -5.2 13 -10.7 66 66 N 9 15 29.97 1015 10 16 0.00 0.00
12:15 pm 12:15 Sunny 23 -5.1 13 -10.7 65 65 N 9 15 29.97 1015 10 16 0.00 0.00
12:35 pm 12:35 Sunny 23 -5.2 13 -10.5 67 67 NW 7 11 29.97 1015 10 16 0.00 0.00
12:55 pm 12:55 Partly Cloudy 23 -5.1 14 -10.2 68 68 NW 9 15 29.97 1015 10 16 0.00 0.00
1:15 pm 13:15 Partly Cloudy 23 -4.8 14 -9.9 68 68 NW 8 13 29.97 1015 10 16 0.00 0.00
1:35 pm 13:35 Sunny 24 -4.2 15 -9.4 67 67 NNW 9 15 29.97 1015 10 16 0.00 0.00
1:55 pm 13:55 Sunny 24 -4.6 14 -9.8 67 67 NW 7 11 29.97 1015 10 16 0.00 0.00
2:15 pm 14:15 Sunny 24 -4.2 15 -9.7 66 66 WNW 10 17 29.94 1014 10 16 0.00 0.00
2:35 pm 14:35 Sunny 27 -2.8 17 -8.5 65 65 NW 7 11 29.94 1014 10 16 0.00 0.00
2:55 pm 14:55 Partly Cloudy 27 -2.8 16 -8.9 63 63 NW 6 9 29.94 1014 10 16 0.00 0.00
3:15 pm 15:15 Sunny 27 -2.8 15 -9.2 62 62 NNW 8 13 29.94 1014 10 16 0.00 0.00
3:35 pm 15:35 Sunny 27 -2.8 15 -9.5 60 60 NNW 8 13 29.94 1014 10 16 0.00 0.00
3:55 pm 15:55 Sunny 27 -2.8 15 -9.3 61 61 NW 7 11 29.94 1014 10 16 0.00 0.00
4:15 pm 16:15 Sunny 27 -2.8 15 -9.3 61 61 NW 7 11 29.97 1015 10 16 0.00 0.00
4:35 pm 16:35 Sunny 26 -3.5 14 -9.9 62 62 NW 5 7 29.97 1015 10 16 0.00 0.00
4:55 pm 16:55 Sunny 24 -4.2 12 -10.9 60 60 NW 9 15 29.97 1015 10 16 0.00 0.00
5:15 pm 17:15 Sunny 24 -4.2 13 -10.3 63 63 N 3 6 29.97 1015 10 16 0.00 0.00
5:35 pm 17:35 Sunny 23 -5 13 -10.7 65 65 NNE 3 6 29.97 1015 10 16 0.00 0.00
5:55 pm 17:55 Clear 23 -5 13 -10.4 66 66 NNE 5 7 30.00 1016 10 16 0.00 0.00
6:15 pm 18:15 Clear 22 -5.6 13 -10.5 69 69 NNE 5 7 30.00 1016 10 16 0.00 0.00
6:35 pm 18:35 Clear 22 -5.6 13 -10.5 69 69 NE 6 9 30.00 1016 10 16 0.00 0.00
6:55 pm 18:55 Clear 20 -6.6 12 -10.9 72 72 NNE 3 6 30.00 1016 10 16 0.00 0.00
7:15 pm 19:15 Clear 20 -6.5 14 -9.9 77 77 Calm 30.00 1016 10 16 0.00 0.00
7:35 pm 19:35 Partly Cloudy 19 -7 14 -10 79 79 Calm 30.00 1016 10 16 0.00 0.00
7:55 pm 19:55 Clear 19 -7 15 -9.5 83 83 Calm 30.00 1016 10 16 0.00 0.00
8:15 pm 20:15 Mostly Cloudy 19 -7 15 -9.5 83 83 Calm 30.00 1016 10 16 0.00 0.00
8:35 pm 20:35 Partly Cloudy 18 -8 13 -10.3 84 84 Calm 30.03 1017 10 16 0.00 0.00
8:55 pm 20:55 Partly Cloudy 17 -8.5 13 -10.6 85 85 Calm 30.03 1017 10 16 0.00 0.00
9:15 pm 21:15 Mostly Cloudy 17 -8.3 13 -10.7 83 83 Calm 30.03 1017 10 16 0.00 0.00
9:35 pm 21:35 Cloudy 17 -8.2 13 -10.8 82 82 NNE 5 7 30.03 1017 10 16 0.00 0.00
9:55 pm 21:55 Cloudy 17 -8.2 13 -10.7 82 82 Calm 30.03 1017 10 16 0.00 0.00
10:15 pm 22:15 Cloudy 19 -7.1 15 -9.6 83 83 E 3 6 30.00 1016 10 16 0.00 0.00
10:35 pm 22:35 Cloudy 19 -7 14 -9.8 81 81 Calm 30.00 1016 10 16 0.00 0.00
10:55 pm 22:55 Cloudy 19 -7 14 -9.8 81 81 Calm 30.00 1016 10 16 0.00 0.00
11:15 pm 23:15 Cloudy 19 -7 14 -9.8 81 81 Calm 30.00 1016 10 16 0.00 0.00
11:35 pm 23:35 Cloudy 20 -6.6 15 -9.6 79 79 Calm 30.00 1016 10 16 0.00 0.00
11:55 pm 23:55 Cloudy 20 -6.4 15 -9.6 78 78 Calm 30.00 1016 10 16 0.00 0.00

Powered by AerisWeather